When you browse on this site, cookies collect data to enhance your experience and personalize the content and advertising you see.
Visit our Privacy Policy to learn more. By continuing to use the site, you agree to this use of cookies and data.
  • En España
  • Lista de países
  • Para 7 días
  • Temperatura del agua
  • El tiempo en el mapa
  • Informadores
  • user-avatar
    Iniciar sesión

    Tiempo cada hora Cobán

    Hoy, 4 Abril, Sábado

    Tiempo Temperatura Precipitaciones Viento Presión Humedad
    00:00 +17°C° 0 mm 0 mps 652 mmHg 73%
    01:00 +17°C° 0 mm 0 mps 652 mmHg 74%
    02:00 +17°C° 0 mm 0 mps 652 mmHg 76%
    03:00 +17°C° 0 mm 0 mps 652 mmHg 77%
    04:00 +16°C° 0 mm 0 mps 652 mmHg 78%
    05:00 +16°C° 0 mm 0 mps 652 mmHg 78%
    06:00 +16°C° 0 mm 0 mps 652 mmHg 79%
    07:00 +19°C° 0 mm 0 mps 653 mmHg 68%
    08:00 +23°C° 0 mm 0 mps 654 mmHg 56%
    09:00 +26°C° 0 mm 0 mps 656 mmHg 45%
    10:00 +29°C° 0 mm 1 mps 655 mmHg 42%
    11:00 +30°C° 0 mm 1 mps 655 mmHg 39%
    12:00 +31°C° 0 mm 2 mps 655 mmHg 35%
    13:00 +31°C° 0 mm 2 mps 654 mmHg 37%
    14:00 +30°C° 0 mm 2 mps 653 mmHg 38%
    15:00 +30°C° 0 mm 2 mps 653 mmHg 40%
    16:00 +28°C° 0 mm 1 mps 652 mmHg 49%
    17:00 +26°C° 0 mm 1 mps 652 mmHg 58%
    18:00 +24°C° 0 mm 1 mps 652 mmHg 67%
    19:00 +23°C° 0.2 mm 1 mps 652 mmHg 71%
    20:00 +22°C° 0.2 mm 1 mps 652 mmHg 75%
    21:00 +21°C° 0.2 mm 1 mps 653 mmHg 79%
    22:00 +20°C° 0 mm 1 mps 653 mmHg 80%
    23:00 +20°C° 0 mm 1 mps 652 mmHg 81%

    Mañana, 5 Abril, Domingo

    Tiempo Temperatura Precipitaciones Viento Presión Humedad
    00:00 +18°C° 0 mm 0 mps 652 mmHg 81%
    01:00 +17°C° 0 mm 0 mps 652 mmHg 81%
    02:00 +17°C° 0 mm 0 mps 652 mmHg 82%
    03:00 +19°C° 0 mm 1 mps 651 mmHg 82%
    04:00 +16°C° 0 mm 0 mps 651 mmHg 82%
    05:00 +16°C° 0 mm 0 mps 652 mmHg 82%
    06:00 +16°C° 0 mm 0 mps 652 mmHg 82%
    07:00 +19°C° 0 mm 0 mps 653 mmHg 70%
    08:00 +22°C° 0 mm 0 mps 655 mmHg 57%
    09:00 +26°C° 0 mm 0 mps 656 mmHg 45%
    10:00 +29°C° 0 mm 1 mps 656 mmHg 42%
    11:00 +30°C° 0 mm 1 mps 656 mmHg 40%
    12:00 +31°C° 0 mm 2 mps 656 mmHg 37%
    13:00 +31°C° 0 mm 2 mps 655 mmHg 38%
    14:00 +30°C° 0 mm 2 mps 654 mmHg 40%
    15:00 +30°C° 0 mm 2 mps 654 mmHg 41%
    16:00 +28°C° 0 mm 2 mps 653 mmHg 50%
    17:00 +26°C° 0 mm 1 mps 653 mmHg 58%
    18:00 +24°C° 0 mm 1 mps 653 mmHg 67%
    19:00 +23°C° 0 mm 1 mps 653 mmHg 72%
    20:00 +22°C° 0 mm 1 mps 653 mmHg 76%
    21:00 +21°C° 0 mm 1 mps 653 mmHg 81%
    22:00 +20°C° 0 mm 1 mps 653 mmHg 81%
    23:00 +18°C° 0 mm 0 mps 653 mmHg 81%

    Pasado mañana, 6 Abril, Lunes

    Tiempo Temperatura Precipitaciones Viento Presión Humedad
    00:00 +17°C° 0 mm 0 mps 653 mmHg 81%
    01:00 +17°C° 0 mm 0 mps 653 mmHg 81%
    02:00 +17°C° 0 mm 0 mps 653 mmHg 81%
    03:00 +16°C° 0 mm 0 mps 653 mmHg 80%
    04:00 +16°C° 0 mm 0 mps 653 mmHg 80%
    05:00 +16°C° 0 mm 0 mps 653 mmHg 81%
    06:00 +16°C° 0 mm 0 mps 653 mmHg 81%
    07:00 +19°C° 0 mm 0 mps 655 mmHg 71%
    08:00 +24°C° 0 mm 1 mps 656 mmHg 61%
    09:00 +27°C° 0 mm 1 mps 657 mmHg 51%
    10:00 +28°C° 0 mm 1 mps 657 mmHg 47%
    11:00 +30°C° 0 mm 1 mps 657 mmHg 43%
    12:00 +31°C° 0 mm 2 mps 657 mmHg 39%
    13:00 +31°C° 0 mm 2 mps 656 mmHg 39%
    14:00 +31°C° 0 mm 2 mps 655 mmHg 40%
    15:00 +30°C° 0 mm 2 mps 655 mmHg 40%
    16:00 +28°C° 0 mm 2 mps 654 mmHg 49%
    17:00 +26°C° 0 mm 1 mps 654 mmHg 58%
    18:00 +24°C° 0 mm 1 mps 654 mmHg 67%
    19:00 +23°C° 0 mm 1 mps 654 mmHg 74%
    20:00 +21°C° 0 mm 1 mps 654 mmHg 80%
    21:00 +20°C° 0 mm 1 mps 654 mmHg 86%
    22:00 +20°C° 0 mm 1 mps 654 mmHg 87%
    23:00 +17°C° 0 mm 0 mps 654 mmHg 88%

    7 Abril, Martes

    Tiempo Temperatura Precipitaciones Viento Presión Humedad
    00:00 +17°C° 0 mm 0 mps 654 mmHg 89%
    01:00 +16°C° 0 mm 0 mps 654 mmHg 90%
    02:00 +16°C° 0 mm 0 mps 653 mmHg 90%
    03:00 +16°C° 0 mm 0 mps 653 mmHg 91%
    04:00 +15°C° 0 mm 0 mps 653 mmHg 88%
    05:00 +15°C° 0 mm 0 mps 654 mmHg 86%
    06:00 +15°C° 0 mm 0 mps 654 mmHg 83%
    07:00 +19°C° 0 mm 0 mps 655 mmHg 70%
    08:00 +22°C° 0 mm 0 mps 656 mmHg 57%
    09:00 +27°C° 0 mm 1 mps 658 mmHg 44%
    10:00 +29°C° 0 mm 1 mps 658 mmHg 41%
    11:00 +30°C° 0 mm 1 mps 658 mmHg 37%
    12:00 +32°C° 0 mm 2 mps 657 mmHg 34%
    13:00 +31°C° 0 mm 2 mps 657 mmHg 36%
    14:00 +31°C° 0 mm 2 mps 656 mmHg 38%
    15:00 +31°C° 0 mm 2 mps 655 mmHg 40%
    16:00 +29°C° 0 mm 2 mps 655 mmHg 49%
    17:00 +27°C° 0 mm 1 mps 654 mmHg 59%
    18:00 +24°C° 0 mm 1 mps 654 mmHg 68%
    19:00 +23°C° 0 mm 1 mps 654 mmHg 74%
    20:00 +22°C° 0 mm 1 mps 654 mmHg 79%
    21:00 +21°C° 0 mm 1 mps 655 mmHg 84%
    22:00 +20°C° 0 mm 1 mps 655 mmHg 85%
    23:00 +18°C° 0 mm 0 mps 655 mmHg 86%

    8 Abril, Miércoles

    Tiempo Temperatura Precipitaciones Viento Presión Humedad
    00:00 +17°C° 0 mm 0 mps 655 mmHg 87%
    01:00 +17°C° 0 mm 0 mps 654 mmHg 87%
    02:00 +17°C° 0 mm 0 mps 654 mmHg 87%
    03:00 +16°C° 0 mm 0 mps 653 mmHg 87%
    04:00 +16°C° 0 mm 0 mps 653 mmHg 85%
    05:00 +16°C° 0 mm 0 mps 653 mmHg 83%
    06:00 +18°C° 0 mm 1 mps 653 mmHg 81%
    07:00 +19°C° 0 mm 0 mps 655 mmHg 69%
    08:00 +23°C° 0 mm 0 mps 656 mmHg 56%
    09:00 +26°C° 0 mm 0 mps 657 mmHg 43%
    10:00 +30°C° 0 mm 1 mps 657 mmHg 40%
    11:00 +31°C° 0 mm 1 mps 657 mmHg 36%
    12:00 +34°C° 0 mm 2 mps 657 mmHg 33%
    13:00 +32°C° 0 mm 2 mps 656 mmHg 34%
    14:00 +32°C° 0 mm 2 mps 655 mmHg 36%
    15:00 +32°C° 0 mm 2 mps 654 mmHg 38%
    16:00 +29°C° 0 mm 2 mps 654 mmHg 46%
    17:00 +27°C° 0 mm 1 mps 654 mmHg 55%
    18:00 +25°C° 0 mm 1 mps 653 mmHg 64%
    19:00 +24°C° 0.1 mm 1 mps 654 mmHg 69%
    20:00 +22°C° 0.1 mm 1 mps 654 mmHg 74%
    21:00 +21°C° 0.1 mm 1 mps 654 mmHg 80%
    22:00 +21°C° 0 mm 1 mps 654 mmHg 81%
    23:00 +20°C° 0 mm 1 mps 654 mmHg 81%

    9 Abril, Jueves

    Tiempo Temperatura Precipitaciones Viento Presión Humedad
    00:00 +18°C° 0 mm 0 mps 654 mmHg 82%
    01:00 +18°C° 0 mm 0 mps 653 mmHg 81%
    02:00 +17°C° 0 mm 0 mps 653 mmHg 81%
    03:00 +17°C° 0 mm 0 mps 653 mmHg 80%
    04:00 +17°C° 0 mm 0 mps 653 mmHg 79%
    05:00 +16°C° 0 mm 0 mps 653 mmHg 77%
    06:00 +16°C° 0 mm 0 mps 653 mmHg 76%
    07:00 +20°C° 0 mm 0 mps 654 mmHg 65%
    08:00 +23°C° 0 mm 0 mps 655 mmHg 53%
    09:00 +27°C° 0 mm 0 mps 656 mmHg 42%
    10:00 +30°C° 0 mm 1 mps 656 mmHg 38%
    11:00 +32°C° 0 mm 1 mps 656 mmHg 34%
    12:00 +34°C° 0 mm 2 mps 656 mmHg 31%
    13:00 +34°C° 0 mm 2 mps 655 mmHg 32%
    14:00 +34°C° 0 mm 2 mps 654 mmHg 34%
    15:00 +32°C° 0 mm 2 mps 654 mmHg 36%
    16:00 +30°C° 0 mm 1 mps 653 mmHg 45%
    17:00 +28°C° 0 mm 1 mps 653 mmHg 54%
    18:00 +26°C° 0 mm 1 mps 652 mmHg 63%
    19:00 +25°C° 0 mm 1 mps 653 mmHg 66%
    20:00 +24°C° 0 mm 1 mps 653 mmHg 69%
    21:00 +22°C° 0 mm 1 mps 653 mmHg 72%
    22:00 +22°C° 0 mm 1 mps 653 mmHg 71%
    23:00 +22°C° 0 mm 1 mps 653 mmHg 71%
    Mostrar más